WAT2476 KRDD-KSLC

Flight info

Callsign WAT2476
Flight time 1h 18m
Altitude 37000
Route KREST3 KREST ZERAM FLECC YUTES2
Aircraft B737/M-SDE2E3FGHIRWXY/LB1

Departure

Time 2026-04-21 04:24
Airport Redding Municipal Airport (KRDD)

Arrival

Time 2026-04-21 05:42
Airport Salt Lake City International Airport (KSLC)
Time Latitude Longitude Altitude Speed Heading
2026-04-21 03:54 40.50526 -122.29903 503 ft 0 kts 323°
2026-04-21 04:17 40.50518 -122.29895 503 ft 4 kts 314°
2026-04-21 04:17 40.50507 -122.29867 503 ft 4 kts 272°
2026-04-21 04:17 40.50506 -122.29838 503 ft 4 kts 316°
2026-04-21 04:18 40.50501 -122.29833 503 ft 1 kts 354°
2026-04-21 04:18 40.50500 -122.29833 503 ft 0 kts 354°
2026-04-21 04:20 40.50516 -122.29836 503 ft 7 kts 354°
2026-04-21 04:20 40.50605 -122.29848 503 ft 17 kts 355°
2026-04-21 04:20 40.50728 -122.29854 503 ft 18 kts 19°
2026-04-21 04:21 40.50816 -122.29749 503 ft 17 kts 46°
2026-04-21 04:21 40.50842 -122.29646 503 ft 11 kts 140°
2026-04-21 04:21 40.50765 -122.29634 503 ft 11 kts 179°
2026-04-21 04:21 40.50682 -122.29633 503 ft 13 kts 180°
2026-04-21 04:22 40.50585 -122.29633 503 ft 15 kts 180°
2026-04-21 04:22 40.50475 -122.29634 503 ft 17 kts 180°
2026-04-21 04:22 40.50351 -122.29635 503 ft 19 kts 180°
2026-04-21 04:22 40.50219 -122.29625 503 ft 18 kts 153°
2026-04-21 04:23 40.50147 -122.29534 503 ft 12 kts 117°
2026-04-21 04:23 40.50178 -122.29490 503 ft 7 kts
2026-04-21 04:23 40.50200 -122.29490 503 ft 16 kts 360°
2026-04-21 04:23 40.50615 -122.29488 503 ft 102 kts 360°
2026-04-21 04:24 40.51571 -122.29484 610 ft 161 kts
2026-04-21 04:24 40.52691 -122.29439 1526 ft 158 kts 11°
2026-04-21 04:24 40.53472 -122.28503 2295 ft 164 kts 82°
2026-04-21 04:24 40.53580 -122.27004 3022 ft 172 kts 66°
2026-04-21 04:25 40.54437 -122.25835 3426 ft 199 kts 18°
2026-04-21 04:25 40.55901 -122.25610 3725 ft 228 kts 356°
2026-04-21 04:25 40.57587 -122.25639 4047 ft 260 kts
2026-04-21 04:25 40.59444 -122.25405 4855 ft 272 kts
2026-04-21 04:26 40.61310 -122.25070 5873 ft 276 kts
2026-04-21 04:26 40.63232 -122.24691 6815 ft 283 kts
2026-04-21 04:26 40.65193 -122.24211 7692 ft 290 kts 19°
2026-04-21 04:26 40.66975 -122.22948 8567 ft 295 kts 40°
2026-04-21 04:27 40.68390 -122.20992 9476 ft 296 kts 55°
2026-04-21 04:27 40.69565 -122.18749 10322 ft 299 kts 71°
2026-04-21 04:27 40.69975 -122.16103 11173 ft 293 kts 94°
2026-04-21 04:27 40.69932 -122.13438 12185 ft 289 kts 102°
2026-04-21 04:28 40.69780 -122.10801 13129 ft 291 kts 104°
2026-04-21 04:28 40.69603 -122.08115 13910 ft 298 kts 104°
2026-04-21 04:28 40.69429 -122.05358 14754 ft 305 kts 104°
2026-04-21 04:28 40.69321 -122.03497 15350 ft 308 kts 104°
2026-04-21 04:29 40.69166 -122.00657 16168 ft 314 kts 103°
2026-04-21 04:29 40.69017 -121.97744 16925 ft 323 kts 103°
2026-04-21 04:29 40.68871 -121.94738 17590 ft 332 kts 102°
2026-04-21 04:29 40.68733 -121.91691 18467 ft 335 kts 102°
2026-04-21 04:30 40.68599 -121.88600 19246 ft 340 kts 102°
2026-04-21 04:30 40.68465 -121.85472 20034 ft 344 kts 102°
2026-04-21 04:30 40.68321 -121.82303 20766 ft 349 kts 103°
2026-04-21 04:30 40.68182 -121.79089 21492 ft 354 kts 103°
2026-04-21 04:31 40.68047 -121.75859 22162 ft 359 kts 103°
2026-04-21 04:31 40.67908 -121.72561 22875 ft 363 kts 103°
2026-04-21 04:31 40.67765 -121.69222 23563 ft 367 kts 103°
2026-04-21 04:31 40.67618 -121.65842 24172 ft 372 kts 103°
2026-04-21 04:32 40.67468 -121.62423 24849 ft 375 kts 103°
2026-04-21 04:32 40.67318 -121.58991 25603 ft 377 kts 103°
2026-04-21 04:32 40.67165 -121.55518 26264 ft 381 kts 103°
2026-04-21 04:32 40.67008 -121.52022 26874 ft 385 kts 103°
2026-04-21 04:33 40.66848 -121.48477 27459 ft 389 kts 103°
2026-04-21 04:33 40.66686 -121.44912 28066 ft 391 kts 103°
2026-04-21 04:33 40.66521 -121.41314 28589 ft 395 kts 103°
2026-04-21 04:33 40.66354 -121.37680 29112 ft 399 kts 103°
2026-04-21 04:34 40.66186 -121.34059 29640 ft 402 kts 103°
2026-04-21 04:34 40.66017 -121.30376 30141 ft 405 kts 103°
2026-04-21 04:34 40.65843 -121.26661 30610 ft 408 kts 103°
2026-04-21 04:34 40.65670 -121.22927 31136 ft 409 kts 103°
2026-04-21 04:35 40.65493 -121.19174 31640 ft 410 kts 103°
2026-04-21 04:35 40.65313 -121.15412 32080 ft 413 kts 103°
2026-04-21 04:35 40.65130 -121.11632 32484 ft 415 kts 103°
2026-04-21 04:35 40.64944 -121.07814 32861 ft 418 kts 103°
2026-04-21 04:36 40.64757 -121.03994 33264 ft 419 kts 103°
2026-04-21 04:36 40.64567 -121.00159 33617 ft 421 kts 103°
2026-04-21 04:36 40.64375 -120.96309 33962 ft 422 kts 102°
2026-04-21 04:36 40.64183 -120.92440 34310 ft 424 kts 102°
2026-04-21 04:37 40.63989 -120.88559 34616 ft 426 kts 102°
2026-04-21 04:37 40.63791 -120.84656 34883 ft 428 kts 102°
2026-04-21 04:37 40.63592 -120.80732 35155 ft 431 kts 102°
2026-04-21 04:37 40.63390 -120.76787 35429 ft 432 kts 102°
2026-04-21 04:38 40.63186 -120.72828 35688 ft 434 kts 102°
2026-04-21 04:38 40.62984 -120.68908 35925 ft 436 kts 102°
2026-04-21 04:38 40.62776 -120.64919 36149 ft 438 kts 102°
2026-04-21 04:38 40.62565 -120.60908 36377 ft 439 kts 102°
2026-04-21 04:39 40.62353 -120.56885 36598 ft 441 kts 102°
2026-04-21 04:39 40.62139 -120.52851 36828 ft 441 kts 102°
2026-04-21 04:39 40.61921 -120.48815 36972 ft 445 kts 102°
2026-04-21 04:40 40.61471 -120.40603 36964 ft 452 kts 102°
2026-04-21 04:40 40.61022 -120.32374 36959 ft 450 kts 102°
2026-04-21 04:41 40.60569 -120.24179 36956 ft 448 kts 102°
2026-04-21 04:41 40.60113 -120.16061 36967 ft 447 kts 102°
2026-04-21 04:42 40.59649 -120.07908 36957 ft 446 kts 102°
2026-04-21 04:42 40.59179 -119.99784 36957 ft 445 kts 102°
2026-04-21 04:43 40.58704 -119.91664 36966 ft 445 kts 102°
2026-04-21 04:43 40.58220 -119.83526 36959 ft 446 kts 102°
2026-04-21 04:44 40.57731 -119.75389 36949 ft 446 kts 102°
2026-04-21 04:44 40.57239 -119.67241 36940 ft 447 kts 102°
2026-04-21 04:45 40.56739 -119.59087 36930 ft 448 kts 102°
2026-04-21 04:45 40.56232 -119.50918 36928 ft 448 kts 102°
2026-04-21 04:46 40.55721 -119.42751 36904 ft 449 kts 102°
2026-04-21 04:46 40.55205 -119.34613 36914 ft 448 kts 102°
2026-04-21 04:47 40.54682 -119.26444 36903 ft 449 kts 102°
2026-04-21 04:47 40.54151 -119.18269 36914 ft 448 kts 102°
2026-04-21 04:48 40.53615 -119.10109 36897 ft 448 kts 102°
2026-04-21 04:48 40.53073 -119.01950 36900 ft 448 kts 102°
2026-04-21 04:49 40.52526 -118.93793 36893 ft 448 kts 102°
2026-04-21 04:49 40.51973 -118.85630 36885 ft 448 kts 102°
2026-04-21 04:50 40.51420 -118.77538 36896 ft 447 kts 102°
2026-04-21 04:50 40.50855 -118.69388 36887 ft 448 kts 102°
2026-04-21 04:51 40.50286 -118.61249 36885 ft 447 kts 102°
2026-04-21 04:51 40.49711 -118.53113 36873 ft 447 kts 102°
2026-04-21 04:52 40.49133 -118.44985 36880 ft 446 kts 103°
2026-04-21 04:52 40.48551 -118.36878 36874 ft 445 kts 103°
2026-04-21 04:53 40.47962 -118.28781 36881 ft 445 kts 103°
2026-04-21 04:53 40.47368 -118.20701 36882 ft 445 kts 103°
2026-04-21 04:54 40.46794 -118.12649 36880 ft 448 kts 100°
2026-04-21 04:54 40.47186 -118.04329 36881 ft 457 kts 90°
2026-04-21 04:55 40.47964 -117.96081 36886 ft 458 kts 89°
2026-04-21 04:55 40.48736 -117.87767 36879 ft 459 kts 90°
2026-04-21 04:56 40.49460 -117.79449 36878 ft 458 kts 90°
2026-04-21 04:56 40.50161 -117.71116 36869 ft 458 kts 90°
2026-04-21 04:57 40.50850 -117.62789 36888 ft 458 kts 90°
2026-04-21 04:57 40.51533 -117.54473 36893 ft 457 kts 90°
2026-04-21 04:58 40.52211 -117.46150 36905 ft 458 kts 90°
2026-04-21 04:58 40.52886 -117.37827 36906 ft 458 kts 90°
2026-04-21 04:59 40.53547 -117.29550 36896 ft 458 kts 90°
2026-04-21 04:59 40.54208 -117.21206 36918 ft 459 kts 90°
2026-04-21 05:00 40.54866 -117.12844 36927 ft 460 kts 90°
2026-04-21 05:00 40.55844 -117.00263 36928 ft 461 kts 90°
2026-04-21 05:01 40.56488 -116.91872 36928 ft 462 kts 89°
2026-04-21 05:01 40.57128 -116.83466 36929 ft 461 kts 89°
2026-04-21 05:02 40.57761 -116.75070 36929 ft 461 kts 89°
2026-04-21 05:02 40.58387 -116.66668 36929 ft 461 kts 89°
2026-04-21 05:03 40.59004 -116.58318 36937 ft 461 kts 89°
2026-04-21 05:03 40.59618 -116.49919 36932 ft 461 kts 89°
2026-04-21 05:04 40.60226 -116.41523 36942 ft 461 kts 89°
2026-04-21 05:04 40.60827 -116.33127 36950 ft 461 kts 89°
2026-04-21 05:05 40.61422 -116.24719 36953 ft 461 kts 89°
2026-04-21 05:05 40.62011 -116.16322 36955 ft 460 kts 89°
2026-04-21 05:06 40.62594 -116.07935 36968 ft 460 kts 89°
2026-04-21 05:06 40.63167 -115.99599 36968 ft 459 kts 89°
2026-04-21 05:07 40.63735 -115.91225 36966 ft 459 kts 89°
2026-04-21 05:07 40.64298 -115.82856 36977 ft 460 kts 89°
2026-04-21 05:08 40.64856 -115.74460 36970 ft 461 kts 89°
2026-04-21 05:08 40.65408 -115.66058 36973 ft 461 kts 89°
2026-04-21 05:09 40.65956 -115.57632 36978 ft 461 kts 89°
2026-04-21 05:09 40.66498 -115.49209 36979 ft 461 kts 89°
2026-04-21 05:10 40.67033 -115.40779 36982 ft 462 kts 89°
2026-04-21 05:10 40.67564 -115.32335 36976 ft 462 kts 89°
2026-04-21 05:11 40.68085 -115.23945 36984 ft 462 kts 89°
2026-04-21 05:11 40.68603 -115.15503 36991 ft 463 kts 88°
2026-04-21 05:12 40.69115 -115.07038 36990 ft 463 kts 88°
2026-04-21 05:12 40.69622 -114.98569 36990 ft 463 kts 88°
2026-04-21 05:13 40.70124 -114.90112 36990 ft 463 kts 88°
2026-04-21 05:13 40.70478 -114.81642 36996 ft 462 kts 91°
2026-04-21 05:14 40.70645 -114.73181 36977 ft 462 kts 91°
2026-04-21 05:14 40.70812 -114.64763 36983 ft 462 kts 91°
2026-04-21 05:15 40.71002 -114.56284 36977 ft 462 kts 90°
2026-04-21 05:15 40.71200 -114.47827 36983 ft 461 kts 90°
2026-04-21 05:16 40.71390 -114.39370 36978 ft 461 kts 90°
2026-04-21 05:16 40.71571 -114.30923 36978 ft 461 kts 90°
2026-04-21 05:17 40.71718 -114.23891 36971 ft 462 kts 90°
2026-04-21 05:17 40.71889 -114.15423 36971 ft 462 kts 90°
2026-04-21 05:18 40.72053 -114.06968 36971 ft 461 kts 90°
2026-04-21 05:18 40.72212 -113.98518 36944 ft 462 kts 90°
2026-04-21 05:19 40.72290 -113.94238 36342 ft 468 kts 90°
2026-04-21 05:19 40.72366 -113.89960 35645 ft 466 kts 90°
2026-04-21 05:19 40.72442 -113.85687 34826 ft 466 kts 90°
2026-04-21 05:19 40.72516 -113.81407 33981 ft 467 kts 89°
2026-04-21 05:20 40.72587 -113.77177 33108 ft 469 kts 90°
2026-04-21 05:20 40.72641 -113.72868 32185 ft 471 kts 90°
2026-04-21 05:20 40.72651 -113.68541 31223 ft 473 kts 91°
2026-04-21 05:20 40.72639 -113.64187 30196 ft 476 kts 91°
2026-04-21 05:21 40.72619 -113.59807 29096 ft 480 kts 91°
2026-04-21 05:21 40.72600 -113.55390 28030 ft 482 kts 91°
2026-04-21 05:21 40.72585 -113.50998 27212 ft 477 kts 91°
2026-04-21 05:21 40.72572 -113.46643 26377 ft 473 kts 91°
2026-04-21 05:22 40.72559 -113.42332 25559 ft 468 kts 91°
2026-04-21 05:22 40.72546 -113.38058 24741 ft 464 kts 91°
2026-04-21 05:22 40.72532 -113.33818 23924 ft 459 kts 91°
2026-04-21 05:22 40.72517 -113.29627 23112 ft 455 kts 91°
2026-04-21 05:23 40.72501 -113.25481 22306 ft 451 kts 92°
2026-04-21 05:23 40.72483 -113.21374 21502 ft 445 kts 92°
2026-04-21 05:23 40.72463 -113.17309 20699 ft 441 kts 92°
2026-04-21 05:23 40.72442 -113.13291 19899 ft 436 kts 92°
2026-04-21 05:24 40.72419 -113.09324 19101 ft 431 kts 92°
2026-04-21 05:24 40.72396 -113.05399 18310 ft 425 kts 93°
2026-04-21 05:24 40.72371 -113.01571 17655 ft 419 kts 93°
2026-04-21 05:24 40.72350 -112.97836 17519 ft 398 kts 93°
2026-04-21 05:25 40.72327 -112.94261 17334 ft 382 kts 93°
2026-04-21 05:25 40.72302 -112.90836 17171 ft 366 kts 93°
2026-04-21 05:25 40.72277 -112.87540 17022 ft 352 kts 93°
2026-04-21 05:25 40.72252 -112.84370 16830 ft 341 kts 94°
2026-04-21 05:26 40.72224 -112.81279 16625 ft 333 kts 94°
2026-04-21 05:26 40.72195 -112.78240 16425 ft 331 kts 94°
2026-04-21 05:26 40.72164 -112.75201 16222 ft 332 kts 94°
2026-04-21 05:26 40.72133 -112.72145 16028 ft 334 kts 94°
2026-04-21 05:27 40.72103 -112.69068 15849 ft 336 kts 94°
2026-04-21 05:27 40.72072 -112.65991 15667 ft 335 kts 94°
2026-04-21 05:27 40.72039 -112.62923 15502 ft 334 kts 93°
2026-04-21 05:27 40.72010 -112.59862 15310 ft 333 kts 93°
2026-04-21 05:28 40.71986 -112.56824 15127 ft 331 kts 93°
2026-04-21 05:28 40.71962 -112.53793 14951 ft 329 kts 94°
2026-04-21 05:28 40.71826 -112.50791 14767 ft 327 kts 99°
2026-04-21 05:28 40.71529 -112.47832 14590 ft 325 kts 101°
2026-04-21 05:29 40.71198 -112.44926 14414 ft 324 kts 101°
2026-04-21 05:29 40.70867 -112.41989 14237 ft 324 kts 101°
2026-04-21 05:29 40.70547 -112.39061 14058 ft 323 kts 101°
2026-04-21 05:29 40.70280 -112.36541 13893 ft 323 kts 100°
2026-04-21 05:30 40.70024 -112.34078 13576 ft 326 kts 100°
2026-04-21 05:30 40.69717 -112.31124 13203 ft 324 kts 100°
2026-04-21 05:30 40.69417 -112.28204 12822 ft 319 kts 100°
2026-04-21 05:30 40.69169 -112.25324 12433 ft 314 kts 93°
2026-04-21 05:31 40.69305 -112.22483 12077 ft 308 kts 85°
2026-04-21 05:31 40.69567 -112.19710 11675 ft 301 kts 85°
2026-04-21 05:31 40.69842 -112.17013 11294 ft 294 kts 79°
2026-04-21 05:31 40.70640 -112.14576 11000 ft 287 kts 56°
2026-04-21 05:32 40.71991 -112.12695 10718 ft 279 kts 42°
2026-04-21 05:32 40.73431 -112.11021 10498 ft 269 kts 41°
2026-04-21 05:32 40.74919 -112.09738 10533 ft 245 kts 19°
2026-04-21 05:32 40.76515 -112.09340 10548 ft 224 kts 358°
2026-04-21 05:33 40.78054 -112.09461 10549 ft 224 kts 353°
2026-04-21 05:33 40.79641 -112.09670 10173 ft 231 kts 353°
2026-04-21 05:33 40.81222 -112.09876 9850 ft 228 kts 353°
2026-04-21 05:33 40.82828 -112.10080 9543 ft 239 kts 354°
2026-04-21 05:34 40.84531 -112.10286 9205 ft 250 kts 354°
2026-04-21 05:34 40.86281 -112.10487 8855 ft 253 kts 355°
2026-04-21 05:34 40.88019 -112.10675 8505 ft 253 kts 355°
2026-04-21 05:34 40.89767 -112.10858 8154 ft 252 kts 355°
2026-04-21 05:35 40.91498 -112.11039 8038 ft 250 kts 355°
2026-04-21 05:35 40.93240 -112.11224 8016 ft 250 kts 355°
2026-04-21 05:35 40.94962 -112.11408 8001 ft 246 kts 355°
2026-04-21 05:35 40.96668 -112.11589 8003 ft 246 kts 355°
2026-04-21 05:36 40.98379 -112.11492 8000 ft 246 kts 15°
2026-04-21 05:36 40.99908 -112.10523 8012 ft 245 kts 39°
2026-04-21 05:36 41.01002 -112.08822 8010 ft 243 kts 63°
2026-04-21 05:36 41.01474 -112.06696 8015 ft 242 kts 86°
2026-04-21 05:37 41.01532 -112.04476 8014 ft 242 kts 90°
2026-04-21 05:37 41.01541 -112.02246 8007 ft 242 kts 90°
2026-04-21 05:37 41.01432 -112.00029 7998 ft 241 kts 106°
2026-04-21 05:37 41.00593 -111.98146 8011 ft 240 kts 137°
2026-04-21 05:38 40.99215 -111.96911 7962 ft 242 kts 153°
2026-04-21 05:38 40.97586 -111.96360 7656 ft 238 kts 172°
2026-04-21 05:38 40.95965 -111.96205 7340 ft 228 kts 179°
2026-04-21 05:38 40.94404 -111.96196 7040 ft 220 kts 180°
2026-04-21 05:39 40.92903 -111.96206 6755 ft 212 kts 180°
2026-04-21 05:39 40.91458 -111.96209 6467 ft 202 kts 180°
2026-04-21 05:39 40.90102 -111.96208 6229 ft 188 kts 180°
2026-04-21 05:39 40.88880 -111.96208 6022 ft 167 kts 179°
2026-04-21 05:40 40.87763 -111.96213 5771 ft 152 kts 180°
2026-04-21 05:40 40.86737 -111.96211 5573 ft 143 kts 178°
2026-04-21 05:40 40.85736 -111.96207 5393 ft 145 kts 178°
2026-04-21 05:40 40.84839 -111.96206 5240 ft 151 kts 178°
2026-04-21 05:41 40.83778 -111.96206 5040 ft 153 kts 178°
2026-04-21 05:41 40.82703 -111.96208 4827 ft 155 kts 179°
2026-04-21 05:41 40.81620 -111.96208 4604 ft 156 kts 178°
2026-04-21 05:41 40.80538 -111.96209 4365 ft 154 kts 179°
2026-04-21 05:42 40.79486 -111.96211 4229 ft 144 kts 179°
2026-04-21 05:42 40.78630 -111.96208 4231 ft 101 kts 181°
2026-04-21 05:42 40.78079 -111.96209 4228 ft 58 kts 180°
2026-04-21 05:42 40.77830 -111.96209 4231 ft 14 kts 181°
2026-04-21 05:43 40.77801 -111.96210 4229 ft 10 kts 180°
2026-04-21 05:43 40.77664 -111.96210 4229 ft 23 kts 179°
2026-04-21 05:43 40.77499 -111.96210 4232 ft 24 kts 181°
2026-04-21 05:43 40.77324 -111.96206 4230 ft 23 kts 169°
2026-04-21 05:44 40.77279 -111.96095 4230 ft 13 kts 71°
2026-04-21 05:44 40.77360 -111.96062 4230 ft 13 kts
2026-04-21 05:44 40.77448 -111.96061 4230 ft 13 kts
2026-04-21 05:44 40.77534 -111.96060 4231 ft 12 kts
2026-04-21 05:45 40.77617 -111.96059 4230 ft 12 kts
2026-04-21 05:45 40.77636 -111.95979 4230 ft 10 kts 92°
2026-04-21 05:45 40.77654 -111.95897 4229 ft 9 kts 30°
2026-04-21 05:45 40.77708 -111.95926 4229 ft 9 kts 321°
2026-04-21 05:46 40.77755 -111.95909 4229 ft 8 kts 71°
2026-04-21 05:46 40.77731 -111.95876 4229 ft 5 kts 181°
2026-04-21 05:46 40.77729 -111.95876 4230 ft 0 kts 181°